Regional Weather Roundup
Issued by NWS Newport/Morehead, NC

Current Version | Previous Version | Graphics & Text | Print | Product List | Glossary Off
Versions: 1 2 3 4 5 6 7 8 9 10 11 12 13 14 15 16 17 18 19 20 21 22 23 24 25 26 27 28 29 30 31 32 33 34 35 36 37 38 39 40 41 42 43 44 45 46 47 48 49 50
000 ASUS42 KMHX 222222 RWRMHX WEATHER ROUNDUP FOR EASTERN NORTH CAROLINA NATIONAL WEATHER SERVICE NEWPORT/MOREHEAD CITY NC 600 PM EDT WED OCT 22 2014 NOTE: "FAIR" INDICATES FEW OR NO CLOUDS BELOW 12,000 FEET WITH NO SIGNIFICANT WEATHER AND/OR OBSTRUCTIONS TO VISIBILITY NCZ015>017-031-032-045>047-102-103-222300- NORTH COAST CITY SKY/WX TMP DP RH WIND PRES REMARKS EDENTON CLOUDY 58 50 76 NW10G18 29.90R ELIZABETH CITY CLOUDY 58 50 75 NW20G26 29.86R KITTY HAWK CLOUDY 57 51 80 NW12G26 29.83R MANTEO CLOUDY 57 51 78 NW17G26 29.85R $$ NCZ045>047-081-094-103-104-222300- CENTRAL COAST CITY SKY/WX TMP DP RH WIND PRES REMARKS FRISCO CLOUDY 58 52 80 NW18G29 29.86R SWANQUARTER N/A 59 N/A N/A NW10 29.85S $$ NCZ095-097-098-100-101-222300- SOUTHERN COAST CITY SKY/WX TMP DP RH WIND PRES REMARKS BEAUFORT MOCLDY 60 48 64 NW15 29.92R CEDAR ISLAND N/A 61 N/A N/A NW25G33 29.94R JACKSONVILLE MOCLDY 63 47 55 N7 29.93S PINEY ISLAND MOCLDY 63 48 58 NW17G28 29.90R WILMINGTON CLEAR 65 45 48 NW9 29.95R $$ NCZ011>013-027>030-043-044-078>080-089-090>093-098-222300- COASTAL PLAIN CITY SKY/WX TMP DP RH WIND PRES REMARKS AHOSKIE MOCLDY 56 46 69 NW7G18 29.93R CLINTON PTCLDY 64 46 50 NW8 29.96S ELIZABETHTOWN CLEAR 64 45 49 NW6 29.97R GOLDSBORO MOCLDY 65 46 50 NW6G22 29.92S GREENVILLE CLOUDY 59 50 72 CALM 29.95R HAVELOCK MOCLDY 60 47 61 NW12 29.93S KENANSVILLE PTCLDY 62 44 51 W3 29.96R KINSTON MOCLDY 63 48 59 NW7 29.94S NEW BERN CLOUDY 62 47 57 NW7 29.93S RICHLANDS PTCLDY 63 45 51 W3 29.94S ROCKY MOUNT CLOUDY 62 45 53 NW8 29.94R WASHINGTON CLOUDY 58 49 71 NW3 29.93R WHITEVILLE CLEAR 63 45 52 CALM 29.97R $$ AMZ130-135-150-152-154-156-158-170-250-252-270-ANZ085-086-088-633-658-670-222300- MARINE OBSERVATIONS STATION/POSITION TIME TEMP WIND PRES WAVE SWELL AIR SEA DIR/SP/G HT/PER HT/PER (UTC) (F) (DEG/KT/KT) (MB) (FT/S) (FT/S) CHESAPEAKE LIGHT 2200 58 320/ 36/ 40 1009.1 64 E VA BEACH 2200 62 69 320/ 25/ 31 1005.5 6/ 6 2/10 DUCK 2200 57 69 310/ 21/ 26 1009.1 2 E DUCK 2200 N/A 4/ 5 10 NE DUCK 2200 70 N/A 7/ 6 OREGON INLET 2200 58 65 300/ 19/ 28 1009.8 13E OREGON INLT 2200 73 N/A 5/ 6 HATTERAS CG 2200 59 68 310/ 22/ 29 1011.4 DIAMOND BUOY 2200 62 310/ 27/ 31 1010.1 6/ 6 2/10 17 S OCRACOKE NOT AVBL CAPE LOOKOUT 2200 61 320/ 18/ 24 1013.1 BEAUFORT LAB 2200 60 69 320/ 8/ 12 1012.5 30 SE NEW RIVER 2200 65 76 330/ 23/ 27 1012.7 4/ 5 2/ 9 5 SE WRIGHTSVLE 2200 63 73 330/ 14/ 16 N/A 225 S CAPE HAT 2057 71 78 310/ 19/ 23 1012.2 6/ 6 2/10 41 SE CHARLESTON 2200 67 79 340/ 12/ 16 1014.8 3/ 5 2/ 6 $$

USA.gov is the U.S. government's official web portal to all federal, state and local government web resources and services.